Klamath Falls Airport Klamath Falls US
ICAO: KLMT
IATA: LMT
Category: Medium
Scheduled Services: Yes

Elevation: 4095 ft
TransAlt. 18000 ft.

Airport Communications:
KINGSLEY APP/DEP:123.675
ATIS:126.5
CTAF:118.2
GND:121.9
ANG BASE OPS:38.895
MC MINNVILLE RDO:122.6
KINGSLEY TWR:118.2
UNICOM:122.95

KLMT Zoom In..

If you have problems with the map follow the link
https://www.worldairports.se/pages/airport.php?
ICAO=KLMT

Runways:

(A) RW 07 length 5258 ft width 100 ft
---- / hdg 73

(B) RW 14 length 10301 ft width 150 ft
---- / hdg 141

(C) RW 25 length 5258 ft width 100 ft
---- / hdg 253

(D) RW 32 length 10301 ft width 150 ft
ILS 109.50 / hdg 321

Location; KLMT
Day. 17 / Time. 01.53 Zulu
* Altimeter: 30.07
* Temperature: 06° c. 42.8°f.
* Wind from: 300° Speed 03 kn.
Dewpoint: -02° c.
Visibility: 10 Statute Miles.
Clouds: Clear (automated report).
Conditions: Smoke.

KLMT 170153Z 30003KT 10SM FU CLR 06/M02 A3007 RMK AO2 SLP200 T00611017


Wind From 300°
Speed 03 kn.

 
 
jpsmedia.com for Web Design worldairports.se 2018   terms of use